Retour au catalogue

STARLINK-5593

ActifCommunicationsVLEO
NORAD 55763·PAYLOAD·🇺🇸 United States

Lancé Mar 3, 2023 depuis Vandenberg Space Force Base

Loading…

Prochains Passages (prochaines 24 heures)

TLE

FraisSource: CelesTrak SupGP

Époque: Sep 14, 2026, 22:30 UTC

1 55763C 23028Y   26257.93798611  .00009698  00000+0  81294-3 0  2572
2 55763  70.0002 127.1344 0002473 271.9655  19.2298 14.98318804    18

Suivez STARLINK-5593 en temps réel avec AllMySat

Download on the App Store